Weather History for Montpelier, VT

Change the Weather History Date:

Thursday, April 25, 2013

  Actual Average Record
Temperature  
Mean Temperature 44 °F 47 °F  
Max Temperature 59 °F 58 °F 85 °F (2009)
Min Temperature 29 °F 35 °F 17 °F (1965)
Degree Days  
Heating Degree Days 21 18  
Month to date heating degree days 646 591  
Since 1 July heating degree days 7259 7616  
Cooling Degree Days 0 0  
Month to date cooling degree days 0 0  
Year to date cooling degree days 0 0  
Moisture  
Dew Point 28 °F    
Average Humidity 54    
Maximum Humidity 78    
Minimum Humidity 29    
Precipitation  
Precipitation 0.02 in 0.09 in 0.58 in (1951)
Month to date precipitation 1.95 2.19  
Year to date precipitation 5.08 9.07  
Sea Level Pressure  
Sea Level Pressure 30.12 in    
Wind  
Wind Speed 7 mph (WNW)    
Max Wind Speed 29 mph    
Max Gust Speed 40 mph    
Visibility 10 miles    
Events      
T = Trace of Precipitation, MM = Missing Value Source: NWS Daily Summary

Daily Weather History Graph

Daily Weather History Graph

Search for Another Location

Airport:

Trip Planner

Search our weather history database for the weather conditions in past years. The results will help you decide how hot, cold, wet, or windy it might be!

Date:

Astronomy

Apr. 25, 2013 Rise Set
Actual Time 5:50 AM EDT 7:47 PM EDT
Civil Twilight 5:18 AM EDT 8:18 PM EDT
Nautical Twilight 4:40 AM EDT 8:56 PM EDT
Astronomical Twilight 3:59 AM EDT 9:38 PM EDT
Moon 7:57 PM EDT (4/25) 5:31 AM EDT (4/25)
Length of Visible Light 14h 59m
Length of Day
13h 56m
Full, 100% of the Moon is Illuminated
Apr 25
Full
Apr 25
Full
May 2
Last Quarter
May 9
New
May 18
First Quarter

Hourly Weather History & Observations

Time (EDT) Temp. Windchill Dew Point Humidity Pressure Visibility Wind Dir Wind Speed Gust Speed Precip Events Conditions
12:51 AM 61.0 °F - 45.0 °F 56% 29.68 in 10.0 mi South 16.1 mph - N/A   Mostly Cloudy
1:51 AM 57.0 °F - 48.9 °F 74% 29.74 in 10.0 mi WSW 8.1 mph 19.6 mph 0.02 in   Overcast
2:51 AM 50.0 °F - 37.9 °F 63% 29.81 in 10.0 mi WSW 17.3 mph 40.3 mph N/A   Mostly Cloudy
3:51 AM 46.0 °F 41.9 °F 34.0 °F 63% 29.88 in 10.0 mi WSW 8.1 mph 27.6 mph N/A   Scattered Clouds
4:51 AM 43.0 °F 36.8 °F 32.0 °F 65% 29.94 in 10.0 mi West 11.5 mph 23.0 mph N/A   Mostly Cloudy
5:51 AM 41.0 °F 35.8 °F 30.0 °F 65% 30.00 in 10.0 mi West 8.1 mph 16.1 mph N/A   Overcast
6:51 AM 41.0 °F 33.9 °F 28.9 °F 62% 30.04 in 10.0 mi West 12.7 mph 19.6 mph N/A   Partly Cloudy
7:51 AM 39.9 °F 35.1 °F 28.9 °F 65% 30.10 in 10.0 mi Variable 6.9 mph 17.3 mph N/A   Overcast
8:51 AM 39.9 °F 32.9 °F 27.0 °F 60% 30.12 in 10.0 mi WNW 11.5 mph 19.6 mph N/A   Overcast
9:51 AM 42.1 °F 37.1 °F 28.0 °F 58% 30.14 in 10.0 mi NW 8.1 mph - N/A   Mostly Cloudy
10:51 AM 42.1 °F 38.4 °F 28.0 °F 58% 30.17 in 10.0 mi Variable 5.8 mph - N/A   Overcast
11:51 AM 44.1 °F 39.0 °F 28.0 °F 53% 30.18 in 10.0 mi WNW 9.2 mph 18.4 mph N/A   Overcast
12:51 PM 46.0 °F 41.0 °F 28.0 °F 50% 30.20 in 10.0 mi North 10.4 mph 18.4 mph N/A   Mostly Cloudy
1:51 PM 48.9 °F - 28.0 °F 44% 30.20 in 10.0 mi NNW 11.5 mph - N/A   Mostly Cloudy
2:51 PM 48.9 °F - 25.0 °F 39% 30.20 in 10.0 mi Calm Calm - N/A   Clear
3:51 PM 51.1 °F - 24.1 °F 35% 30.20 in 10.0 mi NNW 10.4 mph 17.3 mph N/A   Clear
4:51 PM 51.1 °F - 23.0 °F 33% 30.21 in 10.0 mi NNW 13.8 mph 20.7 mph N/A   Clear
5:51 PM 50.0 °F - 19.9 °F 31% 30.24 in 10.0 mi NW 6.9 mph - N/A   Clear
6:51 PM 48.9 °F - 21.0 °F 33% 30.25 in 10.0 mi NNW 4.6 mph - N/A   Clear
7:51 PM 45.0 °F - 21.9 °F 40% 30.27 in 10.0 mi Calm Calm - N/A   Clear
8:51 PM 37.0 °F 34.5 °F 24.1 °F 59% 30.31 in 10.0 mi South 3.5 mph - N/A   Clear
9:51 PM 36.0 °F - 24.1 °F 62% 30.34 in 10.0 mi Calm Calm - N/A   Clear
10:51 PM 34.0 °F - 24.1 °F 67% 30.35 in 10.0 mi Calm Calm - N/A   Clear
11:51 PM 30.9 °F 27.5 °F 24.1 °F 76% 30.37 in 10.0 mi SSE 3.5 mph - N/A   Clear